| time (UTC) | temp F | wind direction | speed MPH | gust MPH | rain 1hr in | rain 24hr in | rain mn in | humidity % | barometer mb |
| 20260506032311 | 43 | 310 | 0.0 | 1.0 | 0.00 | 0.00 | 0.00 | 59 | 1010.5 |
| 20260506031809 | 43 | 310 | 0.0 | 2.0 | 0.00 | 0.00 | 0.00 | 60 | 1010.6 |
| 20260506031307 | 43 | 310 | 2.0 | 4.0 | 0.00 | 0.00 | 0.00 | 61 | 1010.5 |
| 20260506030804 | 43 | 310 | 2.0 | 4.0 | 0.00 | 0.00 | 0.00 | 61 | 1010.5 |
| 20260506030304 | 43 | 313 | 2.0 | 4.0 | 0.00 | 0.00 | 0.00 | 60 | 1010.4 |
| 20260506025805 | 43 | 315 | 2.0 | 3.0 | 0.00 | 0.00 | 0.00 | 60 | 1010.4 |
| 20260506025306 | 43 | 317 | 2.0 | 3.0 | 0.00 | 0.00 | 0.00 | 61 | 1010.3 |
| 20260506024804 | 43 | 317 | 2.0 | 4.0 | 0.00 | 0.00 | 0.00 | 60 | 1010.3 |
| 20260506024304 | 43 | 319 | 3.0 | 4.0 | 0.00 | 0.00 | 0.00 | 60 | 1010.3 |
| 20260506023807 | 44 | 315 | 3.0 | 5.0 | 0.00 | 0.00 | 0.00 | 61 | 1010.2 |
| 20260506023301 | 44 | 300 | 2.0 | 5.0 | 0.00 | 0.00 | 0.00 | 60 | 1010.2 |
| 20260506022759 | 44 | 307 | 3.0 | 4.0 | 0.00 | 0.00 | 0.00 | 60 | 1010.2 |
| 20260506022300 | 44 | 306 | 3.0 | 4.0 | 0.00 | 0.00 | 0.00 | 59 | 1010.2 |
| 20260506021807 | 44 | 319 | 3.0 | 5.0 | 0.00 | 0.00 | 0.00 | 58 | 1010.1 |
| 20260506021300 | 45 | 323 | 3.0 | 5.0 | 0.00 | 0.00 | 0.00 | 58 | 1010.0 |
| 20260506020801 | 45 | 311 | 3.0 | 5.0 | 0.00 | 0.00 | 0.00 | 57 | 1009.9 |
| 20260506020258 | 45 | 322 | 3.0 | 5.0 | 0.00 | 0.00 | 0.00 | 56 | 1009.9 |
| 20260506015756 | 45 | 298 | 4.0 | 8.0 | 0.00 | 0.00 | 0.00 | 55 | 1009.9 |
| 20260506015257 | 46 | 315 | 4.0 | 8.0 | 0.00 | 0.00 | 0.00 | 54 | 1009.8 |
| 20260506014756 | 46 | 323 | 4.0 | 8.0 | 0.00 | 0.00 | 0.00 | 53 | 1009.7 |
| 20260506014301 | 46 | 322 | 5.0 | 9.0 | 0.00 | 0.00 | 0.00 | 53 | 1009.6 |
| 20260506014030 | 46 | 315 | 6.0 | 9.0 | 0.00 | 0.00 | 0.00 | 51 | 1009.5 |
| 20260506013528 | 46 | 318 | 6.0 | 9.0 | 0.00 | 0.00 | 0.00 | 51 | 1009.5 |
| 20260506012752 | 46 | 324 | 6.0 | 10.0 | 0.00 | 0.00 | 0.00 | 51 | 1009.3 |
| 20260506012253 | 47 | 319 | 7.0 | 10.0 | 0.00 | 0.00 | 0.00 | 51 | 1009.2 |
| 20260506011752 | 47 | 317 | 7.0 | 11.0 | 0.00 | 0.00 | 0.00 | 50 | 1009.1 |
| 20260506011253 | 47 | 322 | 8.0 | 13.0 | 0.00 | 0.00 | 0.00 | 49 | 1009.0 |
| 20260506010753 | 47 | 322 | 9.0 | 15.0 | 0.00 | 0.00 | 0.00 | 48 | 1009.0 |
| 20260506010253 | 47 | 309 | 9.0 | 15.0 | 0.00 | 0.00 | 0.00 | 48 | 1009.0 |
| 20260506005754 | 48 | 338 | 10.0 | 16.0 | 0.00 | 0.00 | 0.00 | 47 | 1009.0 |
| 20260506005249 | 48 | 288 | 12.0 | 19.0 | 0.00 | 0.00 | 0.00 | 46 | 1009.0 |
| 20260506004748 | 48 | 314 | 12.0 | 19.0 | 0.00 | 0.00 | 0.00 | 45 | 1009.0 |
| 20260506004518 | 49 | 314 | 11.0 | 19.0 | 0.00 | 0.00 | 0.00 | 45 | 1009.0 |
| 20260506003749 | 49 | 315 | 11.0 | 16.0 | 0.00 | 0.00 | 0.00 | 46 | 1009.0 |
| 20260506003244 | 49 | 327 | 11.0 | 16.0 | 0.00 | 0.00 | 0.00 | 45 | 1008.9 |
| 20260506002745 | 49 | 289 | 11.0 | 17.0 | 0.00 | 0.00 | 0.00 | 45 | 1008.8 |
| 20260506002241 | 49 | 336 | 12.0 | 18.0 | 0.00 | 0.00 | 0.00 | 44 | 1008.9 |
| 20260506002021 | 49 | 286 | 12.0 | 20.0 | 0.00 | 0.00 | 0.00 | 44 | 1008.9 |
| 20260506001243 | 50 | 304 | 11.0 | 20.0 | 0.00 | 0.00 | 0.00 | 44 | 1008.8 |
| 20260506000745 | 50 | 317 | 12.0 | 20.0 | 0.00 | 0.00 | 0.00 | 46 | 1008.8 |
| 20260506000240 | 50 | 311 | 14.0 | 22.0 | 0.00 | 0.00 | 0.00 | 44 | 1008.8 |
| 20260505235655 | 50 | 291 | 13.0 | 22.0 | 0.00 | 0.00 | 0.00 | 44 | 1008.8 |
| 20260505235155 | 50 | 321 | 11.0 | 19.0 | 0.00 | 0.00 | 0.00 | 44 | 1008.7 |
| 20260505234655 | 50 | 315 | 12.0 | 20.0 | 0.00 | 0.00 | 0.00 | 44 | 1008.7 |
| 20260505234155 | 50 | 232 | 14.0 | 22.0 | 0.00 | 0.00 | 0.00 | 43 | 1008.6 |
| 20260505233649 | 51 | 333 | 14.0 | 22.0 | 0.00 | 0.00 | 0.00 | 43 | 1008.5 |
| 20260505233148 | 51 | 324 | 14.0 | 23.0 | 0.00 | 0.00 | 0.00 | 43 | 1008.5 |
| 20260505232650 | 51 | 319 | 15.0 | 23.0 | 0.00 | 0.00 | 0.00 | 43 | 1008.4 |
| 20260505232421 | 51 | 319 | 15.0 | 23.0 | 0.00 | 0.00 | 0.00 | 43 | 1008.4 |
| 20260505231649 | 51 | 295 | 13.0 | 22.0 | 0.00 | 0.00 | 0.00 | 44 | 1008.3 |
| 20260505231148 | 51 | 292 | 13.0 | 22.0 | 0.00 | 0.00 | 0.00 | 44 | 1008.3 |
| 20260505230919 | 51 | 313 | 13.0 | 22.0 | 0.00 | 0.00 | 0.00 | 42 | 1008.2 |
| 20260505230145 | 51 | 303 | 14.0 | 26.0 | 0.00 | 0.00 | 0.00 | 42 | 1008.2 |
| 20260505225650 | 52 | 290 | 13.0 | 21.0 | 0.00 | 0.00 | 0.00 | 42 | 1008.2 |
| 20260505225645 | 52 | 286 | 13.0 | 26.0 | 0.00 | 0.00 | 0.00 | 43 | 1008.2 |
| 20260505224645 | 52 | 322 | 13.0 | 21.0 | 0.00 | 0.00 | 0.00 | 43 | 1008.1 |
| 20260505224416 | 52 | 321 | 14.0 | 24.0 | 0.00 | 0.00 | 0.00 | 42 | 1008.1 |
| 20260505223645 | 52 | 323 | 14.0 | 24.0 | 0.00 | 0.00 | 0.00 | 42 | 1008.1 |
| 20260505223145 | 53 | 296 | 13.0 | 23.0 | 0.00 | 0.00 | 0.00 | 42 | 1008.1 |
| 20260505222643 | 53 | 315 | 14.0 | 23.0 | 0.00 | 0.00 | 0.00 | 43 | 1008.0 |
| 20260505222639 | 53 | 300 | 13.0 | 23.0 | 0.00 | 0.00 | 0.00 | 41 | 1008.1 |
| 20260505221642 | 53 | 293 | 14.0 | 24.0 | 0.00 | 0.00 | 0.00 | 42 | 1008.0 |
| 20260505221138 | 53 | 257 | 16.0 | 24.0 | 0.00 | 0.00 | 0.00 | 40 | 1007.9 |
| 20260505220644 | 53 | 294 | 13.0 | 24.0 | 0.00 | 0.00 | 0.00 | 42 | 1007.9 |
| 20260505220640 | 53 | 268 | 16.0 | 24.0 | 0.00 | 0.00 | 0.00 | 42 | 1007.8 |
| 20260505215639 | 53 | 294 | 13.0 | 25.0 | 0.00 | 0.00 | 0.00 | 41 | 1007.9 |
| 20260505215135 | 53 | 301 | 15.0 | 28.0 | 0.00 | 0.00 | 0.00 | 41 | 1007.9 |
| 20260505214634 | 54 | 265 | 12.0 | 28.0 | 0.00 | 0.00 | 0.00 | 40 | 1007.8 |
| 20260505214134 | 54 | 300 | 11.0 | 24.0 | 0.00 | 0.00 | 0.00 | 40 | 1007.8 |
| 20260505213905 | 54 | 294 | 13.0 | 24.0 | 0.00 | 0.00 | 0.00 | 41 | 1007.8 |
| 20260505213134 | 53 | 296 | 15.0 | 24.0 | 0.00 | 0.00 | 0.00 | 41 | 1007.6 |
| 20260505212634 | 54 | 286 | 13.0 | 24.0 | 0.00 | 0.00 | 0.00 | 43 | 1007.6 |
| 20260505212136 | 54 | 319 | 11.0 | 24.0 | 0.00 | 0.00 | 0.00 | 41 | 1007.6 |
| 20260505211628 | 54 | 314 | 12.0 | 24.0 | 0.00 | 0.00 | 0.00 | 39 | 1007.6 |
| 20260505211128 | 54 | 291 | 13.0 | 26.0 | 0.00 | 0.00 | 0.00 | 41 | 1007.4 |
| 20260505210630 | 54 | 318 | 14.0 | 26.0 | 0.00 | 0.00 | 0.00 | 39 | 1007.6 |
| 20260505210129 | 53 | 296 | 13.0 | 22.0 | 0.00 | 0.00 | 0.00 | 43 | 1007.6 |
| 20260505205858 | 53 | 317 | 12.0 | 22.0 | 0.00 | 0.00 | 0.00 | 41 | 1007.6 |
| 20260505205127 | 53 | 285 | 10.0 | 22.0 | 0.00 | 0.00 | 0.00 | 40 | 1007.6 |
| 20260505204622 | 54 | 250 | 12.0 | 22.0 | 0.00 | 0.00 | 0.00 | 40 | 1007.6 |
| 20260505204120 | 54 | 286 | 12.0 | 22.0 | 0.00 | 0.00 | 0.00 | 41 | 1007.5 |
| 20260505203620 | 54 | 311 | 11.0 | 20.0 | 0.00 | 0.00 | 0.00 | 40 | 1007.4 |
| 20260505203120 | 54 | 270 | 10.0 | 20.0 | 0.00 | 0.00 | 0.00 | 40 | 1007.5 |
| 20260505202620 | 54 | 286 | 10.0 | 18.0 | 0.00 | 0.00 | 0.00 | 38 | 1007.4 |
| 20260505202353 | 55 | 282 | 10.0 | 21.0 | 0.00 | 0.00 | 0.00 | 40 | 1007.6 |
| 20260505201616 | 55 | 276 | 10.0 | 21.0 | 0.00 | 0.00 | 0.00 | 43 | 1007.7 |
| 20260505201114 | 54 | 252 | 10.0 | 24.0 | 0.00 | 0.00 | 0.00 | 41 | 1007.6 |
| 20260505200614 | 53 | 260 | 11.0 | 24.0 | 0.00 | 0.00 | 0.00 | 40 | 1007.6 |
| 20260505200114 | 53 | 296 | 12.0 | 21.0 | 0.00 | 0.00 | 0.00 | 39 | 1007.6 |
| 20260505195615 | 53 | 270 | 11.0 | 23.0 | 0.00 | 0.00 | 0.00 | 44 | 1007.6 |
| 20260505195114 | 54 | 317 | 12.0 | 24.0 | 0.00 | 0.00 | 0.00 | 42 | 1007.7 |
| 20260505194609 | 53 | 294 | 12.0 | 24.0 | 0.00 | 0.00 | 0.00 | 42 | 1007.5 |
| 20260505194108 | 53 | 290 | 10.0 | 24.0 | 0.00 | 0.00 | 0.00 | 42 | 1007.6 |
| 20260505193613 | 54 | 249 | 9.0 | 21.0 | 0.00 | 0.00 | 0.00 | 39 | 1007.4 |
| 20260505193109 | 54 | 281 | 11.0 | 21.0 | 0.00 | 0.00 | 0.00 | 40 | 1007.5 |
| 20260505192840 | 54 | 277 | 11.0 | 22.0 | 0.00 | 0.00 | 0.00 | 45 | 1007.3 |
| 20260505192109 | 54 | 265 | 11.0 | 22.0 | 0.00 | 0.00 | 0.00 | 41 | 1007.3 |
| 20260505191603 | 54 | 285 | 12.0 | 21.0 | 0.00 | 0.00 | 0.00 | 42 | 1007.1 |
| 20260505191107 | 55 | 305 | 10.0 | 22.0 | 0.00 | 0.00 | 0.00 | 43 | 1007.0 |
| 20260505191103 | 55 | 332 | 11.0 | 22.0 | 0.00 | 0.00 | 0.00 | 41 | 1007.1 |
| 20260505185602 | 53 | 304 | 8.0 | 16.0 | 0.00 | 0.00 | 0.00 | 40 | 1007.1 |
| 20260505185103 | 54 | 300 | 9.0 | 20.0 | 0.00 | 0.00 | 0.00 | 40 | 1006.9 |
| 20260505184557 | 54 | 276 | 9.0 | 20.0 | 0.00 | 0.00 | 0.00 | 42 | 1007.0 |
| 20260505184056 | 54 | 315 | 8.0 | 20.0 | 0.00 | 0.00 | 0.00 | 42 | 1006.8 |
| 20260505183555 | 54 | 285 | 9.0 | 20.0 | 0.00 | 0.00 | 0.00 | 39 | 1006.8 |
| 20260505183328 | 54 | 309 | 8.0 | 20.0 | 0.00 | 0.00 | 0.00 | 41 | 1006.8 |
| 20260505182556 | 55 | 296 | 7.0 | 15.0 | 0.00 | 0.00 | 0.00 | 39 | 1006.7 |
| 20260505182328 | 55 | 327 | 7.0 | 14.0 | 0.00 | 0.00 | 0.00 | 40 | 1006.7 |
| 20260505181551 | 54 | 304 | 8.0 | 19.0 | 0.00 | 0.00 | 0.00 | 41 | 1006.8 |
| 20260505181050 | 54 | 303 | 10.0 | 21.0 | 0.00 | 0.00 | 0.00 | 38 | 1006.8 |
| 20260505180821 | 53 | 285 | 9.0 | 21.0 | 0.00 | 0.00 | 0.00 | 44 | 1006.8 |
| 20260505180050 | 53 | 268 | 7.0 | 15.0 | 0.00 | 0.00 | 0.00 | 39 | 1006.8 |
| 20260505175549 | 53 | 278 | 8.0 | 15.0 | 0.00 | 0.00 | 0.00 | 38 | 1006.7 |
| 20260505175051 | 53 | 250 | 9.0 | 16.0 | 0.00 | 0.00 | 0.00 | 38 | 1006.8 |
| 20260505174548 | 53 | 261 | 8.0 | 16.0 | 0.00 | 0.00 | 0.00 | 39 | 1006.7 |
| 20260505174047 | 53 | 321 | 8.0 | 18.0 | 0.00 | 0.00 | 0.00 | 41 | 1006.7 |
| 20260505173547 | 53 | 292 | 7.0 | 18.0 | 0.00 | 0.00 | 0.00 | 39 | 1006.7 |
| 20260505173048 | 53 | 282 | 6.0 | 14.0 | 0.00 | 0.00 | 0.00 | 42 | 1006.7 |
| 20260505172547 | 53 | 288 | 7.0 | 14.0 | 0.00 | 0.00 | 0.00 | 40 | 1006.7 |
| 20260505172047 | 53 | 246 | 7.0 | 14.0 | 0.00 | 0.00 | 0.00 | 42 | 1006.6 |
| 20260505171549 | 53 | 297 | 7.0 | 15.0 | 0.00 | 0.00 | 0.00 | 44 | 1006.7 |
| 20260505171045 | 52 | 248 | 7.0 | 15.0 | 0.00 | 0.00 | 0.00 | 43 | 1006.6 |
| 20260505170047 | 53 | 241 | 7.0 | 14.0 | 0.00 | 0.00 | 0.00 | 43 | 1006.7 |
| 20260505165546 | 52 | 273 | 6.0 | 14.0 | 0.00 | 0.00 | 0.00 | 45 | 1006.6 |
| 20260505165048 | 53 | 261 | 6.0 | 14.0 | 0.00 | 0.00 | 0.00 | 45 | 1006.5 |
| 20260505164817 | 52 | 246 | 6.0 | 14.0 | 0.00 | 0.00 | 0.00 | 47 | 1006.4 |
| 20260505164046 | 52 | 275 | 6.0 | 14.0 | 0.00 | 0.00 | 0.00 | 48 | 1006.5 |
| 20260505163542 | 51 | 297 | 6.0 | 15.0 | 0.00 | 0.00 | 0.00 | 47 | 1006.5 |
| 20260505163040 | 52 | 275 | 7.0 | 15.0 | 0.00 | 0.00 | 0.00 | 45 | 1006.4 |
| 20260505162540 | 52 | 263 | 6.0 | 16.0 | 0.00 | 0.00 | 0.00 | 46 | 1006.4 |
| 20260505162311 | 52 | 238 | 6.0 | 17.0 | 0.00 | 0.00 | 0.00 | 49 | 1006.3 |
| 20260505161541 | 51 | 226 | 5.0 | 17.0 | 0.00 | 0.00 | 0.00 | 48 | 1006.5 |
| 20260505161042 | 52 | 276 | 6.0 | 15.0 | 0.00 | 0.00 | 0.00 | 48 | 1006.4 |
| 20260505160536 | 51 | 321 | 7.0 | 15.0 | 0.00 | 0.00 | 0.00 | 50 | 1006.4 |
| 20260505153036 | 51 | 254 | 5.0 | 15.0 | 0.00 | 0.00 | 0.00 | 49 | 1006.4 |
| 20260505152532 | 51 | 266 | 6.0 | 13.0 | 0.00 | 0.00 | 0.00 | 49 | 1006.5 |
| 20260505152033 | 51 | 298 | 6.0 | 21.0 | 0.00 | 0.00 | 0.00 | 50 | 1006.5 |
| 20260505151529 | 51 | 290 | 5.0 | 21.0 | 0.00 | 0.00 | 0.00 | 50 | 1006.5 |
| 20260505151302 | 50 | 269 | 4.0 | 13.0 | 0.00 | 0.00 | 0.00 | 51 | 1006.5 |
| 20260505150530 | 49 | 289 | 5.0 | 13.0 | 0.00 | 0.00 | 0.00 | 52 | 1006.6 |
| 20260505130245 | 47 | 284 | 5.0 | 15.0 | 0.00 | 0.00 | 0.00 | 55 | 1006.6 |
| 20260505125017 | 47 | 223 | 3.0 | 8.0 | 0.00 | 0.00 | 0.00 | 56 | 1006.4 |
| 20260505124515 | 47 | 278 | 3.0 | 8.0 | 0.00 | 0.00 | 0.00 | 57 | 1006.3 |
| 20260505124010 | 46 | 263 | 4.0 | 9.0 | 0.00 | 0.00 | 0.00 | 58 | 1006.2 |
| 20260505123510 | 46 | 0 | 4.0 | 9.0 | 0.00 | 0.00 | 0.00 | 58 | 1006.2 |
| 20260505123240 | 46 | 272 | 4.0 | 9.0 | 0.00 | 0.00 | 0.00 | 57 | 1006.1 |
| 20260505122510 | 46 | 281 | 3.0 | 8.0 | 0.00 | 0.00 | 0.00 | 58 | 1006.0 |
| 20260505122007 | 45 | 294 | 4.0 | 9.0 | 0.00 | 0.00 | 0.00 | 58 | 1005.9 |
| 20260505121512 | 45 | 254 | 4.0 | 9.0 | 0.00 | 0.00 | 0.00 | 58 | 1005.7 |
| 20260505121505 | 45 | 266 | 3.0 | 9.0 | 0.00 | 0.00 | 0.00 | 58 | 1005.8 |
| 20260505120506 | 45 | 278 | 3.0 | 9.0 | 0.00 | 0.00 | 0.00 | 58 | 1005.7 |
| 20260505120005 | 45 | 307 | 3.0 | 9.0 | 0.00 | 0.00 | 0.00 | 58 | 1005.7 |
| 20260505115503 | 44 | 271 | 3.0 | 7.0 | 0.00 | 0.00 | 0.00 | 58 | 1005.6 |
| 20260505115003 | 44 | 294 | 3.0 | 8.0 | 0.00 | 0.00 | 0.00 | 58 | 1005.6 |
| 20260505114504 | 44 | 254 | 3.0 | 8.0 | 0.00 | 0.00 | 0.00 | 57 | 1005.6 |
| 20260505114003 | 44 | 292 | 4.0 | 8.0 | 0.00 | 0.00 | 0.00 | 58 | 1005.6 |
| 20260505113502 | 44 | 294 | 4.0 | 8.0 | 0.00 | 0.00 | 0.00 | 57 | 1005.6 |
| 20260505113000 | 44 | 304 | 3.0 | 8.0 | 0.00 | 0.00 | 0.00 | 58 | 1005.6 |
| 20260505112458 | 43 | 284 | 3.0 | 6.0 | 0.00 | 0.00 | 0.00 | 58 | 1005.6 |
| 20260505111956 | 43 | 247 | 2.0 | 6.0 | 0.00 | 0.00 | 0.00 | 58 | 1005.6 |
| 20260505111505 | 43 | 261 | 2.0 | 5.0 | 0.00 | 0.00 | 0.00 | 58 | 1005.5 |
| 20260505110955 | 43 | 271 | 2.0 | 4.0 | 0.00 | 0.00 | 0.00 | 58 | 1005.4 |
| 20260505110455 | 42 | 286 | 2.0 | 4.0 | 0.00 | 0.00 | 0.00 | 57 | 1005.4 |
| 20260505101947 | 43 | 313 | 2.0 | 4.0 | 0.00 | 0.00 | 0.00 | 57 | 1004.9 |
| 20260505101445 | 43 | 301 | 2.0 | 5.0 | 0.00 | 0.00 | 0.00 | 56 | 1004.9 |
| 20260505100943 | 43 | 294 | 2.0 | 5.0 | 0.00 | 0.00 | 0.00 | 56 | 1004.9 |
| 20260505100443 | 43 | 252 | 2.0 | 7.0 | 0.00 | 0.00 | 0.00 | 57 | 1004.9 |
| 20260505095945 | 43 | 281 | 2.0 | 7.0 | 0.00 | 0.00 | 0.00 | 58 | 1004.9 |
| 20260505095444 | 43 | 259 | 2.0 | 6.0 | 0.00 | 0.00 | 0.00 | 57 | 1004.9 |
| 20260505094941 | 43 | 267 | 2.0 | 6.0 | 0.00 | 0.00 | 0.00 | 57 | 1004.9 |
| 20260505094440 | 43 | 288 | 2.0 | 4.0 | 0.00 | 0.00 | 0.00 | 57 | 1004.8 |
| 20260505093939 | 43 | 273 | 2.0 | 4.0 | 0.00 | 0.00 | 0.00 | 57 | 1004.8 |
| 20260505093440 | 43 | 267 | 2.0 | 4.0 | 0.00 | 0.00 | 0.00 | 57 | 1004.6 |
| 20260505092940 | 43 | 304 | 2.0 | 4.0 | 0.00 | 0.00 | 0.00 | 57 | 1004.5 |
| 20260505092439 | 43 | 276 | 1.0 | 4.0 | 0.00 | 0.00 | 0.00 | 57 | 1004.5 |
| 20260505091940 | 42 | 227 | 1.0 | 4.0 | 0.00 | 0.00 | 0.00 | 57 | 1004.4 |
| 20260505091434 | 42 | 285 | 1.0 | 3.0 | 0.00 | 0.00 | 0.00 | 57 | 1004.3 |
| 20260505090933 | 42 | 300 | 1.0 | 3.0 | 0.00 | 0.00 | 0.00 | 57 | 1004.1 |
| 20260505090702 | 42 | 301 | 1.0 | 3.0 | 0.00 | 0.00 | 0.00 | 57 | 1004.1 |
| 20260505085934 | 42 | 302 | 1.0 | 3.0 | 0.00 | 0.00 | 0.00 | 58 | 1003.9 |
| 20260505085929 | 42 | 300 | 2.0 | 3.0 | 0.00 | 0.00 | 0.00 | 58 | 1004.0 |
| 20260505084923 | 42 | 300 | 1.0 | 2.0 | 0.00 | 0.00 | 0.00 | 57 | 1003.7 |
| 20260505084429 | 42 | 217 | 1.0 | 4.0 | 0.00 | 0.00 | 0.00 | 58 | 1003.5 |
| 20260505084425 | 42 | 293 | 1.0 | 3.0 | 0.00 | 0.00 | 0.00 | 57 | 1003.6 |
| 20260505083422 | 42 | 293 | 2.0 | 4.0 | 0.00 | 0.00 | 0.00 | 58 | 1003.5 |
| 20260505082922 | 43 | 298 | 2.0 | 4.0 | 0.00 | 0.00 | 0.00 | 58 | 1003.5 |
| 20260505082423 | 43 | 306 | 2.0 | 4.0 | 0.00 | 0.00 | 0.00 | 58 | 1003.5 |
| 20260505081916 | 43 | 304 | 2.0 | 4.0 | 0.00 | 0.00 | 0.00 | 57 | 1003.6 |
| 20260505081416 | 44 | 311 | 3.0 | 6.0 | 0.00 | 0.00 | 0.00 | 55 | 1003.6 |
| 20260505080915 | 44 | 313 | 4.0 | 6.0 | 0.00 | 0.00 | 0.00 | 54 | 1003.5 |
| 20260505080415 | 44 | 323 | 5.0 | 9.0 | 0.00 | 0.00 | 0.00 | 52 | 1003.5 |
| 20260505075915 | 45 | 319 | 6.0 | 10.0 | 0.00 | 0.00 | 0.00 | 52 | 1003.4 |
| 20260505075416 | 45 | 313 | 7.0 | 14.0 | 0.00 | 0.00 | 0.00 | 51 | 1003.3 |
| 20260505074910 | 45 | 311 | 8.0 | 15.0 | 0.00 | 0.00 | 0.00 | 51 | 1003.2 |
| 20260505074409 | 45 | 334 | 8.0 | 15.0 | 0.00 | 0.00 | 0.00 | 50 | 1003.3 |
| 20260505073909 | 46 | 318 | 8.0 | 12.0 | 0.00 | 0.00 | 0.00 | 50 | 1003.2 |
| 20260505073409 | 46 | 315 | 9.0 | 14.0 | 0.00 | 0.00 | 0.00 | 50 | 1003.2 |
| 20260505072909 | 46 | 309 | 10.0 | 17.0 | 0.00 | 0.00 | 0.00 | 50 | 1003.2 |
| 20260505072410 | 46 | 338 | 10.0 | 20.0 | 0.00 | 0.00 | 0.00 | 50 | 1003.2 |
| 20260505071904 | 46 | 338 | 9.0 | 20.0 | 0.00 | 0.00 | 0.00 | 51 | 1003.1 |
| 20260505071402 | 46 | 333 | 9.0 | 14.0 | 0.00 | 0.00 | 0.00 | 53 | 1003.2 |
| 20260505070903 | 47 | 334 | 9.0 | 14.0 | 0.00 | 0.00 | 0.00 | 52 | 1003.3 |
| 20260505070635 | 47 | 322 | 9.0 | 17.0 | 0.00 | 0.00 | 0.00 | 53 | 1003.3 |
| 20260505065903 | 47 | 315 | 9.0 | 17.0 | 0.00 | 0.00 | 0.00 | 54 | 1003.1 |
| 20260505065404 | 47 | 323 | 9.0 | 16.0 | 0.00 | 0.00 | 0.00 | 55 | 1003.2 |
| 20260505065131 | 47 | 329 | 9.0 | 15.0 | 0.00 | 0.00 | 0.00 | 57 | 1003.2 |
| 20260505064358 | 48 | 328 | 9.0 | 15.0 | 0.00 | 0.00 | 0.00 | 57 | 1003.1 |
| 20260505063857 | 48 | 331 | 8.0 | 13.0 | 0.00 | 0.00 | 0.00 | 57 | 1003.1 |
| 20260505063359 | 48 | 314 | 9.0 | 16.0 | 0.00 | 0.00 | 0.00 | 57 | 1003.0 |
| 20260505062857 | 48 | 309 | 9.0 | 16.0 | 0.00 | 0.00 | 0.00 | 57 | 1003.0 |
| 20260505062359 | 49 | 327 | 9.0 | 13.0 | 0.00 | 0.00 | 0.00 | 57 | 1002.9 |
| 20260505061852 | 49 | 306 | 9.0 | 14.0 | 0.00 | 0.00 | 0.00 | 56 | 1002.9 |
| 20260505061621 | 49 | 291 | 11.0 | 18.0 | 0.00 | 0.00 | 0.00 | 55 | 1002.9 |
| 20260505060852 | 50 | 314 | 12.0 | 18.0 | 0.00 | 0.00 | 0.00 | 54 | 1002.7 |
| 20260505060350 | 50 | 315 | 12.0 | 20.0 | 0.00 | 0.00 | 0.00 | 54 | 1002.7 |
| 20260505055851 | 50 | 311 | 12.0 | 20.0 | 0.00 | 0.00 | 0.00 | 54 | 1002.6 |
| 20260505055352 | 50 | 330 | 11.0 | 18.0 | 0.00 | 0.00 | 0.00 | 54 | 1002.5 |
| 20260505055117 | 50 | 316 | 11.0 | 18.0 | 0.00 | 0.00 | 0.00 | 53 | 1002.4 |
| 20260505054347 | 50 | 304 | 12.0 | 18.0 | 0.00 | 0.00 | 0.00 | 53 | 1002.4 |
| 20260505053844 | 51 | 304 | 12.0 | 20.0 | 0.00 | 0.00 | 0.00 | 53 | 1002.2 |
| 20260505053343 | 51 | 321 | 12.0 | 20.0 | 0.00 | 0.00 | 0.00 | 52 | 1002.0 |
| 20260505052848 | 51 | 310 | 12.0 | 18.0 | 0.00 | 0.00 | 0.00 | 51 | 1002.0 |
| 20260505052345 | 51 | 316 | 12.0 | 18.0 | 0.00 | 0.00 | 0.00 | 52 | 1001.9 |
| 20260505051840 | 52 | 328 | 13.0 | 22.0 | 0.00 | 0.00 | 0.00 | 52 | 1001.8 |
| 20260505051341 | 52 | 325 | 14.0 | 22.0 | 0.00 | 0.00 | 0.00 | 51 | 1001.7 |
| 20260505050841 | 52 | 319 | 12.0 | 21.0 | 0.00 | 0.00 | 0.00 | 51 | 1001.6 |
| 20260505050341 | 52 | 320 | 10.0 | 19.0 | 0.00 | 0.00 | 0.00 | 53 | 1001.5 |
| 20260505041340 | 55 | 315 | 7.0 | 17.0 | 0.00 | 0.00 | 0.00 | 52 | 1000.5 |
| 20260505040834 | 55 | 283 | 6.0 | 13.0 | 0.00 | 0.00 | 0.00 | 51 | 1000.4 |
| 20260505040332 | 55 | 300 | 7.0 | 14.0 | 0.00 | 0.00 | 0.00 | 51 | 1000.3 |
| 20260505035828 | 56 | 265 | 10.0 | 16.0 | 0.00 | 0.00 | 0.00 | 50 | 1000.2 |
| 20260505035330 | 56 | 306 | 12.0 | 20.0 | 0.00 | 0.00 | 0.00 | 48 | 1000.1 |
| 20260505034829 | 56 | 300 | 12.0 | 20.0 | 0.00 | 0.00 | 0.00 | 48 | 1000.0 |
| 20260505034331 | 56 | 312 | 13.0 | 19.0 | 0.00 | 0.00 | 0.00 | 48 | 999.8 |
| 20260505033824 | 56 | 296 | 12.0 | 19.0 | 0.00 | 0.00 | 0.00 | 48 | 999.6 |
| 20260505033322 | 56 | 306 | 11.0 | 19.0 | 0.00 | 0.00 | 0.00 | 49 | 999.4 |
| 20260505033056 | 56 | 294 | 11.0 | 17.0 | 0.00 | 0.00 | 0.00 | 49 | 999.3 |